Date String (YYYY-MM-DD hh:mm:ss) UTC,Instrument flags,Ambient pressure (hPa),Sample flow (lpm),Bypass flow (lpm),Sample temperature (°C),Ambient temperature (°C),ASC tube jacket temperature (°C),LED temperature (°C),Box temperature (°C),Sample RH (%),Span deviation,Mass concentration (μg/m³),Mass concentration (μg/m³),Mass concentration (μg/m³)
DateTimeUTC,F1_M11,P_M11,Q1_M11,Q2_M11,T1_M11,T2_M11,T3_M11,T4_M11,T5_M11,U1_M11,ZSPAN_M11,X0_M11,X2_M11,X1_M11
2022-01-10 09:00:00,,0838.3,5.01,0.00,22.4,21.8,00.0,31.4,24.0,06.0,0000.0,0000.26,0000.21,0000.20
2022-01-10 09:01:00,,0838.3,4.99,0.00,22.3,21.7,00.0,31.4,24.0,06.0,0000.0,0000.25,0000.20,0000.20
2022-01-10 09:02:00,,0838.3,5.02,0.00,22.3,21.6,00.0,31.4,24.0,06.1,0000.0,0000.24,0000.20,0000.19
2022-01-10 09:03:00,,0838.4,4.99,0.00,22.3,21.6,00.0,31.4,23.9,06.1,0000.0,0000.22,0000.19,0000.19
2022-01-10 09:04:00,,0838.5,5.01,0.00,22.3,21.6,00.0,31.4,23.9,06.2,0000.0,0000.23,0000.20,0000.20
2022-01-10 09:05:00,,0838.5,5.00,0.00,22.2,21.5,00.0,31.4,23.9,06.1,0000.0,0000.28,0000.21,0000.20
2022-01-10 09:06:00,,0838.5,4.99,0.00,22.2,21.5,00.0,31.3,23.9,06.0,0000.0,0000.27,0000.21,0000.20
2022-01-10 09:07:00,,0838.5,5.01,0.00,22.2,21.5,00.0,31.3,23.9,06.0,0000.0,0000.26,0000.21,0000.19
2022-01-10 09:08:00,,0838.5,4.99,0.00,22.2,21.4,00.0,31.3,23.8,06.0,0000.0,0000.27,0000.21,0000.20
2022-01-10 09:09:00,,0838.5,5.00,0.00,22.2,21.5,00.0,31.3,23.8,05.9,0000.0,0000.27,0000.21,0000.20
2022-01-10 09:10:00,,0838.6,5.00,0.00,22.2,22.0,00.0,31.3,24.0,05.9,0000.0,0000.27,0000.21,0000.20
2022-01-10 09:11:00,,0838.5,4.99,0.00,22.4,22.8,00.0,31.4,24.3,05.8,0000.0,0000.28,0000.22,0000.20
2022-01-10 09:12:00,,0838.5,5.02,0.00,22.5,23.2,00.0,31.4,24.5,05.8,0000.0,0000.31,0000.23,0000.21
2022-01-10 09:13:00,,0838.5,4.99,0.00,22.5,23.0,00.0,31.4,24.4,05.7,0000.0,0000.35,0000.25,0000.21
2022-01-10 09:14:00,,0838.5,4.99,0.00,22.5,22.7,00.0,31.4,24.4,05.7,0000.0,0000.34,0000.24,0000.20
2022-01-10 09:15:00,,0838.6,5.00,0.00,22.5,22.5,00.0,31.4,24.3,05.7,0000.0,0000.34,0000.24,0000.20
2022-01-10 09:16:00,,0838.5,5.00,0.00,22.5,22.3,00.0,31.4,24.2,05.7,0000.0,0000.29,0000.22,0000.20
2022-01-10 09:17:00,,0838.5,5.00,0.00,22.5,22.1,00.0,31.4,24.2,05.7,0000.0,0000.30,0000.23,0000.20
2022-01-10 09:18:00,,0838.5,5.01,0.00,22.4,22.0,00.0,31.4,24.1,05.7,0000.0,0000.30,0000.23,0000.20
2022-01-10 09:19:00,,0838.5,4.99,0.00,22.4,21.9,00.0,31.4,24.1,05.7,0000.0,0000.30,0000.22,0000.20
2022-01-10 09:20:00,,0838.5,5.00,0.00,22.4,21.8,00.0,31.4,24.0,05.8,0000.0,0000.30,0000.22,0000.19
2022-01-10 09:21:00,,0838.5,5.00,0.00,22.3,21.7,00.0,31.4,24.0,05.8,0000.0,0000.30,0000.22,0000.19
2022-01-10 09:22:00,,0838.5,5.00,0.00,22.3,21.6,00.0,31.4,24.0,05.8,0000.0,0000.30,0000.22,0000.19
2022-01-10 09:23:00,,0838.5,5.02,0.00,22.3,21.6,00.0,31.4,23.9,05.9,0000.0,0000.26,0000.20,0000.19
2022-01-10 09:24:00,,0838.5,4.99,0.00,22.3,21.5,00.0,31.4,23.9,05.9,0000.0,0000.23,0000.19,0000.19
2022-01-10 09:25:00,,0838.5,5.00,0.00,22.2,21.5,00.0,31.4,23.9,05.8,0000.0,0000.25,0000.20,0000.19
2022-01-10 09:26:00,,0838.6,5.00,0.00,22.2,21.5,00.0,31.3,23.9,05.9,0000.0,0000.27,0000.21,0000.19
2022-01-10 09:27:00,,0838.5,5.00,0.00,22.2,21.4,00.0,31.3,23.8,05.9,0000.0,0000.27,0000.21,0000.20
2022-01-10 09:28:00,,0838.5,5.00,0.00,22.2,21.4,00.0,31.3,23.8,06.0,0000.0,0000.27,0000.21,0000.20
2022-01-10 09:29:00,,0838.5,4.99,0.00,22.2,21.5,00.0,31.3,23.8,06.0,0000.0,0000.28,0000.21,0000.19
2022-01-10 09:30:00,,0838.5,5.00,0.00,22.3,22.2,00.0,31.3,24.0,06.0,0000.0,0000.30,0000.22,0000.19
2022-01-10 09:31:00,,0838.6,5.00,0.00,22.4,23.0,00.0,31.4,24.3,05.9,0000.0,0000.34,0000.23,0000.20
2022-01-10 09:32:00,,0838.6,5.00,0.00,22.5,23.1,00.0,31.4,24.4,05.9,0000.0,0000.34,0000.23,0000.19
2022-01-10 09:33:00,,0838.6,5.00,0.00,22.5,22.8,00.0,31.4,24.4,05.9,0000.0,0000.33,0000.22,0000.19
2022-01-10 09:34:00,,0838.6,5.00,0.00,22.5,22.6,00.0,31.4,24.3,05.9,0000.0,0000.34,0000.23,0000.19
2022-01-10 09:35:00,,0838.6,5.01,0.00,22.5,22.3,00.0,31.4,24.2,05.9,0000.0,0000.34,0000.23,0000.19
2022-01-10 09:36:00,,0838.6,4.99,0.00,22.5,22.2,00.0,31.4,24.2,05.9,0000.0,0000.32,0000.22,0000.19
2022-01-10 09:37:00,,0838.6,5.02,0.00,22.4,22.0,00.0,31.4,24.1,05.9,0000.0,0000.30,0000.22,0000.19
2022-01-10 09:38:00,,0838.6,4.99,0.00,22.4,21.9,00.0,31.4,24.1,06.1,0000.0,0000.31,0000.21,0000.19
2022-01-10 09:39:00,,0838.6,5.01,0.00,22.4,21.8,00.0,31.4,24.0,06.2,0000.0,0000.33,0000.22,0000.19
2022-01-10 09:40:00,,0838.6,4.99,0.00,22.3,21.7,00.0,31.4,24.0,06.2,0000.0,0001.63,0000.24,0000.20
2022-01-10 09:41:00,,0838.6,5.01,0.00,22.3,21.7,00.0,31.4,24.0,06.1,0000.0,0001.74,0000.23,0000.20
2022-01-10 09:42:00,,0838.6,5.01,0.00,22.3,21.6,00.0,31.4,23.9,06.1,0000.0,0001.70,0000.22,0000.19
2022-01-10 09:43:00,,0838.6,4.99,0.00,22.3,21.6,00.0,31.4,23.9,06.1,0000.0,0001.70,0000.22,0000.19
2022-01-10 09:44:00,,0838.6,5.01,0.00,22.2,21.5,00.0,31.4,23.9,06.1,0000.0,0001.70,0000.22,0000.19
2022-01-10 09:45:00,,0838.6,5.00,0.00,22.2,21.5,00.0,31.3,23.9,06.1,0000.0,0001.69,0000.21,0000.18
2022-01-10 09:46:00,,0838.6,4.99,0.00,22.2,21.5,00.0,31.3,23.9,06.1,0000.0,0001.69,0000.21,0000.18
2022-01-10 09:47:00,,0838.6,5.00,0.00,22.2,21.5,00.0,31.3,23.9,06.1,0000.0,0001.70,0000.21,0000.18
2022-01-10 09:48:00,,0838.6,5.00,0.00,22.2,21.4,00.0,31.3,23.8,06.1,0000.0,0001.70,0000.21,0000.18
2022-01-10 09:49:00,,0838.6,5.00,0.00,22.2,21.7,00.0,31.3,23.9,06.1,0000.0,0001.69,0000.21,0000.18
2022-01-10 09:50:00,,0838.7,5.00,0.00,22.3,22.4,00.0,31.3,24.1,06.1,0000.0,0001.67,0000.20,0000.17
2022-01-10 09:51:00,,0838.7,5.01,0.00,22.5,23.1,00.0,31.4,24.4,06.0,0000.0,0000.72,0000.17,0000.16
2022-01-10 09:52:00,,0838.7,4.99,0.00,22.6,23.1,00.0,31.4,24.5,05.9,0000.0,0000.22,0000.17,0000.16
2022-01-10 09:53:00,,0838.6,5.00,0.00,22.6,22.9,00.0,31.4,24.4,05.9,0000.0,0000.24,0000.18,0000.15
2022-01-10 09:54:00,,0838.6,5.00,0.00,22.6,22.6,00.0,31.4,24.4,05.9,0000.0,0000.24,0000.18,0000.16
2022-01-10 09:55:00,,0838.7,5.01,0.00,22.6,22.4,00.0,31.4,24.3,05.9,0000.0,0000.24,0000.19,0000.16
2022-01-10 09:56:00,,0838.6,4.99,0.00,22.5,22.3,00.0,31.5,24.3,05.8,0000.0,0000.24,0000.19,0000.16
2022-01-10 09:57:00,,0838.7,5.00,0.00,22.5,22.1,00.0,31.5,24.2,05.8,0000.0,0000.24,0000.19,0000.16
2022-01-10 09:58:00,,0838.6,5.00,0.00,22.5,22.0,00.0,31.5,24.2,05.8,0000.0,0000.23,0000.19,0000.16
2022-01-10 09:59:00,,0838.7,5.00,0.00,22.5,21.9,00.0,31.5,24.1,05.9,0000.0,0000.24,0000.19,0000.17
